Location: Nelson
(41.2830°S, 173.2830°E)
Time: 18:34:30
(UTC+12:00)

Cosmos 1842 Rocket - Pass Details

Date: 14 May 2021
Orbit: 604 x 635 km, 82.5° (Epoch: 19 June)

Event Time Altitude Azimuth Distance (km) Brightness Sun altitude
Rises 18:07:49 0° 183° (S) 2,933 6.9 -9.4°
Reaches altitude 10° 18:10:07 10° 178° (S) 2,024 6.0 -9.8°
Maximum altitude 18:14:30 51° 101° (E) 798 3.7 -10.6°
Drops below altitude 10° 18:18:51 10° 24° (NNE) 2,013 6.1 -11.4°
Sets 18:21:08 0° 19° (NNE) 2,916 7.0 -11.8°
